�N����,����,�~����,�C��,���x,�C��,����,���ϕ���,�ő�u�ԕ���,�ő厞����,���˗�,�I�_���x,�n�����x,�ő啗���N��,DTYPE
"22/04/16","00:10",0.0,12.7,80.1,1004.1,308.6,3.1,5.9,313.2,0.00,9.4,15.3,"00:07:20",1
"22/04/16","00:20",0.0,12.8,79.8,1004.5,316.5,2.6,5.8,309.0,0.00,9.4,15.1,"00:13:36",1
"22/04/16","00:30",0.0,12.7,79.8,1004.3,326.5,1.8,4.9,343.5,0.00,9.3,15.1,"00:28:24",1
"22/04/16","00:40",0.0,12.7,79.7,1004.8,291.7,3.2,5.6,245.5,0.00,9.3,15.2,"00:36:04",1
"22/04/16","00:50",0.0,12.7,79.3,1004.5,316.3,4.0,7.3,321.0,0.00,9.3,15.2,"00:46:44",1
"22/04/16","01:00",0.0,12.6,78.9,1004.3,338.8,4.2,7.0,338.0,0.00,9.1,15.2,"00:52:02",1
"22/04/16","01:10",0.0,12.6,78.6,1004.5,320.4,3.6,5.7,308.6,0.00,9.0,15.2,"01:02:02",1
"22/04/16","01:20",0.0,12.5,78.4,1004.5,323.5,3.4,6.5,322.5,0.00,8.9,15.3,"01:16:34",1
"22/04/16","01:30",0.0,12.4,78.5,1004.5,323.5,3.1,5.8,348.2,0.00,8.8,15.2,"01:26:56",1
"22/04/16","01:40",0.0,12.3,78.6,1004.5,318.4,4.0,6.4,316.0,0.00,8.7,15.0,"01:38:00",1
"22/04/16","01:50",0.0,12.1,79.0,1004.1,332.6,4.1,6.6,342.7,0.00,8.6,14.9,"01:44:28",1
"22/04/16","02:00",0.0,11.9,79.1,1004.5,327.7,4.2,9.1,346.0,0.00,8.4,15.0,"01:58:52",1
"22/04/16","02:10",0.0,11.8,79.3,1004.5,336.4,3.9,7.1,318.7,0.00,8.4,15.2,"02:08:48",1
"22/04/16","02:20",0.0,11.8,78.9,1004.5,312.5,3.6,5.8,308.5,0.00,8.3,15.1,"02:18:20",1
"22/04/16","02:30",0.0,11.8,78.4,1004.3,331.7,3.0,4.8,333.4,0.00,8.2,14.9,"02:22:16",1
"22/04/16","02:40",0.0,11.8,78.3,1004.5,321.4,2.5,5.2,314.5,0.00,8.2,14.8,"02:32:24",1
"22/04/16","02:50",0.0,11.8,78.3,1004.5,296.4,2.5,4.0,312.1,0.00,8.2,14.9,"02:48:48",1
"22/04/16","03:00",0.0,11.7,78.6,1004.8,290.9,1.8,3.4,20.0,0.00,8.1,14.9,"02:53:40",1
"22/04/16","03:10",0.0,11.6,78.8,1004.5,311.4,2.5,6.8,344.7,0.00,8.1,14.6,"03:06:40",1
"22/04/16","03:20",0.0,11.6,79.1,1004.8,315.2,2.5,4.8,326.9,0.00,8.1,14.7,"03:18:44",1
"22/04/16","03:30",0.0,11.6,79.5,1004.5,305.0,2.6,4.5,313.1,0.00,8.2,14.9,"03:22:24",1
"22/04/16","03:40",0.0,11.5,79.8,1004.8,320.0,2.7,7.8,312.8,0.00,8.2,14.8,"03:37:52",1
"22/04/16","03:50",0.0,11.5,80.0,1005.0,335.7,2.7,4.4,344.2,0.00,8.2,14.7,"03:47:28",1
"22/04/16","04:00",0.0,11.5,80.1,1004.8,318.3,2.8,5.2,326.5,0.00,8.2,14.6,"03:57:12",1
"22/04/16","04:10",0.0,11.4,80.0,1004.3,316.2,2.8,5.8,262.3,0.00,8.1,14.6,"04:09:08",1
"22/04/16","04:20",0.0,11.5,79.5,1004.8,301.0,3.6,6.0,310.8,0.00,8.1,14.9,"04:17:12",1
"22/04/16","04:30",0.0,11.5,79.2,1004.8,281.7,2.6,4.2,265.2,0.00,8.1,14.6,"04:27:52",1
"22/04/16","04:40",0.0,11.4,79.2,1004.8,317.1,2.7,6.4,338.5,0.00,8.0,14.6,"04:33:54",1
"22/04/16","04:50",0.0,11.2,79.4,1005.0,314.7,3.6,7.2,302.1,0.00,7.8,14.7,"04:45:20",1
"22/04/16","05:00",0.0,11.1,79.7,1005.2,291.1,3.7,8.8,355.7,0.00,7.8,14.6,"04:54:16",1
"22/04/16","05:10",0.0,10.8,80.7,1005.5,307.5,4.0,6.7,303.3,0.00,7.7,14.4,"05:01:20",1
"22/04/16","05:20",0.0,10.7,81.4,1005.5,306.3,3.4,5.4,289.9,0.00,7.7,14.4,"05:19:28",1
"22/04/16","05:30",0.0,10.6,82.1,1005.7,327.7,3.6,6.3,345.1,0.00,7.7,14.5,"05:24:48",1
"22/04/16","05:40",0.0,10.6,82.8,1005.7,302.4,2.3,3.6,335.0,0.00,7.8,14.3,"05:31:44",1
"22/04/16","05:50",0.0,10.3,83.5,1006.0,309.8,2.6,4.8,312.2,0.00,7.7,14.6,"05:46:32",1
"22/04/16","06:00",0.0,10.1,83.5,1006.0,318.1,2.1,4.1,341.2,0.00,7.5,14.3,"05:51:52",1
"22/04/16","06:10",0.0,10.1,83.3,1006.0,323.4,1.5,2.9,323.0,0.00,7.4,14.4,"06:03:12",1
"22/04/16","06:20",0.0,9.9,83.0,1006.2,313.6,2.0,2.9,329.4,0.00,7.2,14.4,"06:14:08",1
"22/04/16","06:30",0.0,10.3,82.0,1006.4,326.3,2.5,4.5,323.8,0.00,7.4,14.3,"06:21:04",1
"22/04/16","06:40",0.0,10.3,81.0,1006.7,320.2,2.6,5.6,343.7,0.00,7.2,14.4,"06:35:04",1
"22/04/16","06:50",0.0,10.3,80.3,1006.9,310.3,3.4,6.2,314.9,0.01,7.1,14.3,"06:42:24",1
"22/04/16","07:00",0.0,10.4,79.9,1006.7,335.0,3.0,5.5,322.1,0.02,7.1,14.3,"06:50:16",1
"22/04/16","07:10",0.0,10.4,79.8,1007.1,292.9,2.5,4.2,329.9,0.03,7.1,14.2,"07:03:20",1
"22/04/16","07:20",0.0,10.4,80.3,1007.6,294.0,2.1,3.9,313.5,0.01,7.2,14.2,"07:14:40",1
"22/04/16","07:30",0.0,9.9,81.0,1007.4,317.6,3.2,5.6,301.7,0.05,6.8,14.2,"07:23:36",1
"22/04/16","07:40",0.0,10.2,81.8,1007.1,316.2,3.4,5.8,314.7,0.11,7.3,14.2,"07:31:52",1
"22/04/16","07:50",0.0,10.2,82.0,1007.1,305.6,2.6,4.4,326.2,0.06,7.3,14.2,"07:43:36",1
"22/04/16","08:00",0.0,10.4,81.1,1007.1,328.3,3.5,6.2,339.9,0.12,7.3,14.1,"07:59:04",1
"22/04/16","08:10",0.0,10.8,79.4,1007.1,335.2,4.2,7.1,338.5,0.19,7.4,14.0,"08:09:04",1
"22/04/16","08:20",0.0,10.7,78.3,1007.4,338.7,3.7,7.0,327.1,0.13,7.1,14.3,"08:16:08",1
"22/04/16","08:30",0.0,11.4,78.3,1007.6,347.5,2.3,4.8,347.6,0.21,7.8,14.4,"08:22:08",1
"22/04/16","08:40",0.0,11.5,76.1,1007.4,336.9,3.1,5.9,331.4,0.22,7.5,14.1,"08:33:36",1
"22/04/16","08:50",0.0,11.5,75.8,1007.4,333.8,4.0,6.3,344.7,0.16,7.4,14.1,"08:40:40",1
"22/04/16","09:00",0.0,11.8,75.8,1007.6,316.9,3.7,7.1,342.2,0.33,7.7,14.2,"08:50:48",1
"22/04/16","09:10",0.0,11.6,75.8,1007.6,311.1,4.1,6.7,339.7,0.21,7.5,14.0,"09:07:52",1
"22/04/16","09:20",0.0,11.3,76.7,1007.6,314.2,4.2,7.0,314.5,0.23,7.4,14.1,"09:15:28",1
"22/04/16","09:30",0.0,12.3,76.1,1007.6,330.1,2.5,4.3,331.5,0.34,8.3,14.2,"09:29:52",1
"22/04/16","09:40",0.0,12.6,73.8,1007.4,341.6,3.2,6.6,316.5,0.32,8.1,14.3,"09:38:40",1
"22/04/16","09:50",0.0,12.1,72.2,1007.6,349.7,3.6,7.2,343.3,0.17,7.3,14.2,"09:44:56",1
"22/04/16","10:00",0.0,11.9,73.0,1007.8,343.5,3.7,6.3,336.8,0.14,7.3,14.2,"09:53:20",1
"22/04/16","10:10",0.0,12.9,73.6,1007.6,330.7,3.7,7.2,314.5,0.39,8.3,14.3,"10:08:12",1
"22/04/16","10:20",0.0,13.1,70.9,1007.6,335.7,4.2,7.7,347.9,0.46,8.0,14.2,"10:18:32",1
"22/04/16","10:30",0.0,13.0,67.9,1008.1,339.1,4.0,9.7,325.9,0.34,7.3,14.4,"10:28:48",1
"22/04/16","10:40",0.0,13.5,68.8,1007.8,343.1,3.4,7.5,336.6,0.39,7.9,14.2,"10:30:32",1
"22/04/16","10:50",0.0,14.5,66.9,1008.3,345.4,3.2,7.8,320.1,0.60,8.5,14.3,"10:49:52",1
"22/04/16","11:00",0.0,13.5,65.7,1008.6,334.1,5.6,11.2,332.8,0.53,7.3,14.3,"10:58:48",1
"22/04/16","11:10",0.0,13.7,66.0,1008.8,333.6,5.5,9.6,5.9,0.51,7.5,14.4,"11:03:28",1
"22/04/16","11:20",0.0,14.1,64.4,1008.3,336.8,4.1,8.0,298.3,0.59,7.5,14.5,"11:18:48",1
"22/04/16","11:30",0.0,13.6,64.5,1008.6,333.9,4.9,8.5,331.8,0.54,7.1,14.6,"11:20:16",1
"22/04/16","11:40",0.0,13.6,65.0,1008.8,324.7,6.0,10.0,329.9,0.61,7.2,14.6,"11:39:52",1
"22/04/16","11:50",0.0,13.5,65.2,1008.3,335.7,6.5,12.6,332.6,0.65,7.1,14.7,"11:41:52",1
"22/04/16","12:00",0.0,14.0,64.2,1008.1,337.9,5.9,12.3,342.8,0.65,7.4,14.6,"11:50:24",1
"22/04/16","12:10",0.0,13.9,63.0,1007.8,331.3,6.1,10.5,356.1,0.65,7.0,14.6,"12:09:20",1
"22/04/16","12:20",0.0,13.9,63.4,1007.8,332.5,7.5,12.3,306.2,0.65,7.1,14.8,"12:11:12",1
"22/04/16","12:30",0.0,13.9,63.2,1007.8,331.1,7.5,13.1,321.7,0.66,7.1,14.7,"12:27:28",1
"22/04/16","12:40",0.0,14.2,63.3,1007.6,325.6,8.0,12.0,316.0,0.65,7.4,14.7,"12:34:40",1
"22/04/16","12:50",0.0,14.1,63.2,1007.4,329.9,8.4,15.8,331.4,0.63,7.3,14.7,"12:43:06",1
"22/04/16","13:00",0.0,13.9,61.2,1007.4,328.7,8.9,14.6,305.0,0.60,6.6,14.8,"12:55:38",1
"22/04/16","13:10",0.0,13.9,60.0,1007.4,342.1,8.8,16.4,321.6,0.63,6.3,14.8,"13:08:10",1
"22/04/16","13:20",0.0,14.1,58.6,1007.6,342.4,8.3,15.1,319.6,0.61,6.2,15.0,"13:17:20",1
"22/04/16","13:30",0.0,14.3,58.2,1007.4,341.6,8.1,14.9,333.2,0.57,6.2,14.9,"13:20:24",1
"22/04/16","13:40",0.0,14.0,56.3,1007.1,345.2,8.5,16.0,351.0,0.57,5.5,15.1,"13:34:26",1
"22/04/16","13:50",0.0,13.8,56.6,1007.1,344.5,8.1,15.6,340.9,0.51,5.4,14.9,"13:45:36",1
"22/04/16","14:00",0.0,13.6,55.5,1007.8,344.0,8.0,17.4,333.1,0.53,4.9,15.0,"13:56:36",1
"22/04/16","14:10",0.0,13.6,53.7,1007.4,339.8,8.5,14.2,328.3,0.52,4.4,15.1,"14:01:12",1
"22/04/16","14:20",0.0,14.0,53.9,1007.8,348.5,7.0,13.4,338.3,0.56,4.9,15.2,"14:16:16",1
"22/04/16","14:30",0.0,14.0,52.6,1007.6,347.2,6.9,16.6,329.4,0.53,4.5,15.2,"14:21:12",1
"22/04/16","14:40",0.0,13.8,53.6,1007.8,342.9,7.6,20.9,324.6,0.53,4.6,15.1,"14:33:44",1
"22/04/16","14:50",0.0,14.0,52.1,1008.1,342.4,7.3,16.9,317.6,0.51,4.4,15.2,"14:43:08",1
"22/04/16","15:00",0.0,14.1,49.9,1008.6,342.0,5.2,14.2,338.0,0.49,3.9,15.1,"14:55:28",1
"22/04/16","15:10",0.0,14.4,49.2,1008.8,348.2,4.7,10.0,320.7,0.47,3.9,15.3,"15:00:16",1
"22/04/16","15:20",0.0,14.6,47.6,1008.6,346.8,3.1,10.2,328.6,0.44,3.6,15.2,"15:18:56",1
"22/04/16","15:30",0.0,14.9,44.3,1008.6,340.0,3.1,9.8,326.0,0.42,2.9,15.1,"15:22:24",1
"22/04/16","15:40",0.0,14.5,45.4,1008.6,332.0,4.0,9.4,313.1,0.40,2.9,15.3,"15:30:56",1
"22/04/16","15:50",0.0,14.4,46.8,1008.6,339.0,4.1,9.4,323.3,0.37,3.2,15.0,"15:46:48",1
"22/04/16","16:00",0.0,14.5,45.5,1008.8,1.3,3.5,6.7,348.3,0.35,2.9,15.2,"15:50:02",1
"22/04/16","16:10",0.0,14.4,46.0,1008.8,357.4,3.5,7.5,21.4,0.32,3.0,15.3,"16:09:44",1
"22/04/16","16:20",0.0,14.0,47.8,1008.6,345.5,4.7,10.9,341.7,0.29,3.2,15.1,"16:13:36",1
"22/04/16","16:30",0.0,14.0,47.8,1008.6,343.6,4.5,10.1,316.5,0.26,3.2,15.2,"16:20:56",1
"22/04/16","16:40",0.0,14.0,49.7,1008.3,343.5,4.6,9.1,346.7,0.24,3.7,15.4,"16:34:56",1
"22/04/16","16:50",0.0,14.0,49.9,1008.6,323.7,4.1,8.1,315.3,0.21,3.8,15.2,"16:47:52",1
"22/04/16","17:00",0.0,13.7,50.3,1008.3,333.7,4.6,8.3,330.5,0.18,3.6,15.3,"16:55:12",1
"22/04/16","17:10",0.0,13.4,50.5,1009.0,329.3,5.6,10.6,345.2,0.16,3.4,15.3,"17:03:46",1
"22/04/16","17:20",0.0,13.5,51.9,1009.0,327.0,4.4,8.2,337.5,0.13,3.9,15.4,"17:12:24",1
"22/04/16","17:30",0.0,13.2,50.8,1008.8,323.9,4.5,8.6,341.6,0.10,3.3,15.2,"17:29:38",1
"22/04/16","17:40",0.0,13.1,51.3,1008.8,331.1,3.9,7.9,316.4,0.08,3.3,15.2,"17:30:16",1
"22/04/16","17:50",0.0,12.8,52.8,1009.0,335.3,4.0,7.9,337.1,0.06,3.5,15.3,"17:49:30",1
"22/04/16","18:00",0.0,12.8,53.8,1008.8,348.0,2.8,5.2,344.3,0.04,3.7,15.2,"17:54:26",1
"22/04/16","18:10",0.0,12.2,54.6,1009.5,348.3,3.5,10.4,335.0,0.03,3.4,15.3,"18:03:28",1
"22/04/16","18:20",0.0,11.8,56.1,1009.0,338.5,4.0,7.0,348.1,0.01,3.4,15.1,"18:10:10",1
"22/04/16","18:30",0.0,11.5,57.7,1009.3,328.2,3.9,7.2,321.9,0.00,3.5,15.2,"18:24:24",1
"22/04/16","18:40",0.0,11.1,59.0,1009.5,322.8,4.1,8.1,339.8,0.00,3.4,15.2,"18:33:04",1
"22/04/16","18:50",0.0,10.7,60.9,1009.5,318.4,3.6,6.6,326.9,0.00,3.5,14.9,"18:44:32",1
"22/04/16","19:00",0.0,10.6,61.6,1009.7,320.5,2.0,6.4,264.5,0.00,3.6,15.0,"18:58:54",1
"22/04/16","19:10",0.0,10.2,63.0,1009.7,335.8,2.6,5.2,342.3,0.00,3.5,15.0,"19:03:32",1
"22/04/16","19:20",0.0,10.0,64.3,1009.5,347.2,3.6,6.7,344.0,0.00,3.6,15.0,"19:18:40",1
"22/04/16","19:30",0.0,9.9,65.2,1010.2,341.7,3.7,7.0,351.9,0.00,3.7,15.0,"19:23:42",1
"22/04/16","19:40",0.0,9.7,65.7,1010.4,330.9,1.8,4.8,334.1,0.00,3.6,14.8,"19:31:36",1
"22/04/16","19:50",0.0,9.8,65.4,1010.4,304.1,3.5,5.9,322.8,0.00,3.7,14.9,"19:47:12",1
"22/04/16","20:00",0.0,9.6,66.2,1010.4,335.3,2.7,4.9,302.3,0.00,3.6,14.9,"19:53:12",1
"22/04/16","20:10",0.0,9.5,66.8,1010.7,352.4,2.0,5.5,349.1,0.00,3.7,14.8,"20:00:40",1
"22/04/16","20:20",0.0,9.2,68.4,1010.4,332.8,3.0,5.7,331.1,0.00,3.7,14.7,"20:18:00",1
"22/04/16","20:30",0.0,9.3,68.4,1010.9,332.3,2.8,5.8,345.7,0.00,3.8,14.6,"20:28:56",1
"22/04/16","20:40",0.0,9.1,68.7,1010.9,285.0,1.7,3.6,250.4,0.00,3.7,14.5,"20:33:20",1
"22/04/16","20:50",0.0,9.0,69.1,1011.2,283.5,1.6,3.1,308.5,0.00,3.7,14.6,"20:40:24",1
"22/04/16","21:00",0.0,8.8,70.2,1011.2,327.4,2.7,4.3,320.4,0.00,3.7,14.7,"20:51:36",1
"22/04/16","21:10",0.0,8.6,71.2,1011.4,330.0,1.8,3.2,326.8,0.00,3.7,14.7,"21:01:36",1
"22/04/16","21:20",0.0,8.9,71.4,1011.4,322.1,3.1,5.4,345.9,0.00,4.1,14.6,"21:10:48",1
"22/04/16","21:30",0.0,8.8,71.2,1011.4,303.6,2.6,4.3,339.2,0.00,3.9,14.7,"21:28:56",1
"22/04/16","21:40",0.0,8.9,71.3,1011.6,327.3,3.2,6.2,348.1,0.00,4.0,14.3,"21:37:12",1
"22/04/16","21:50",0.0,8.7,71.6,1011.9,313.9,2.7,3.7,327.7,0.00,3.9,14.4,"21:41:44",1
"22/04/16","22:00",0.0,8.1,73.1,1012.3,333.4,3.0,3.9,314.1,0.00,3.6,14.1,"21:53:44",1
"22/04/16","22:10",0.0,7.8,74.5,1011.9,322.3,3.6,4.9,313.9,0.00,3.6,14.6,"22:01:52",1
"22/04/16","22:20",0.0,7.7,75.3,1011.9,332.1,3.2,5.0,336.7,0.00,3.7,14.3,"22:16:16",1
"22/04/16","22:30",0.0,8.0,75.6,1012.1,324.0,4.4,6.0,325.5,0.00,4.0,14.2,"22:26:32",1
"22/04/16","22:40",0.0,7.9,75.7,1012.8,333.6,3.9,6.5,340.3,0.00,3.9,14.1,"22:30:02",1
"22/04/16","22:50",0.0,7.7,76.3,1012.6,327.9,3.4,5.4,333.9,0.00,3.8,14.0,"22:40:08",1
"22/04/16","23:00",0.0,7.7,76.6,1012.6,326.7,3.2,5.2,332.2,0.00,3.9,14.1,"22:52:16",1
"22/04/16","23:10",0.0,7.8,76.6,1012.8,324.2,3.9,6.3,339.3,0.00,4.0,14.1,"23:03:12",1
"22/04/16","23:20",0.0,7.7,76.6,1013.0,312.4,3.2,5.8,329.1,0.00,3.9,13.8,"23:19:20",1
"22/04/16","23:30",0.0,7.6,76.7,1012.6,325.9,3.5,5.1,315.8,0.00,3.8,13.9,"23:20:24",1
"22/04/16","23:40",0.0,7.3,77.4,1012.6,322.9,3.6,5.6,310.1,0.00,3.7,13.9,"23:39:04",1
"22/04/16","23:50",0.0,7.0,78.2,1012.8,325.8,2.8,4.3,338.8,0.00,3.5,13.8,"23:42:16",1
"22/04/16","24:00",0.0,6.7,79.4,1012.6,324.1,2.5,4.0,315.0,0.00,3.4,14.0,"23:57:12",1
